Location: Sommers-Bausch Observatory
(40.0037°N, 105.2635°W)
Time: 03:26:50
(UTC-07:00)

Amateur Radio Satellites - All Passes

Search period start: 22 January 2018 02:56
Search period end: 23 January 2018 02:56
Location: Sommers-Bausch Observatory, 40.0037°N, 105.2635°W

Satellite Date Start Highest point End Downlink Frequencies (MHz)
Time Altitude Azimuth
Gurwin Techsat 1B 22 Jan 03:20:03 03:23:37 18° 297° (WNW) 03:27:09 435.225
ITUPSAT 1 22 Jan 03:22:07 03:26:36 41° 261° (W) 03:31:09 437.325
Oscar 19 22 Jan 03:25:06 03:27:04 12° 301° (WNW) 03:29:02 437.125/150
KKS-1 22 Jan 03:25:24 03:27:47 14° 63° (ENE) 03:30:10 437.445
nSIGHT-1 22 Jan 03:31:16 03:33:40 20° 228° (SW) 03:36:04 .
MOZHAYETS 4 22 Jan 03:42:54 03:45:26 15° 269° (W) 03:48:00
FALCONSAT 3 22 Jan 03:46:15 03:49:25 27° 165° (SSE) 03:52:34 435.103
CUBESAT XI-V 22 Jan 03:47:02 03:51:35 50° 261° (W) 03:56:09 437.345
ISS 22 Jan 03:49:49 03:52:19 20° 228° (SW) 03:54:49 437.550
DOVE 4 22 Jan 04:02:36 04:06:12 24° 96° (E) 04:09:56 437.250
BEESAT 22 Jan 04:02:46 04:05:43 16° 268° (W) 04:08:40 436.000
AO-7 22 Jan 04:11:19 04:19:40 73° 291° (WNW) 04:27:57 .
ITAMSAT 1 22 Jan 04:31:38 04:36:39 49° 289° (WNW) 04:41:39 435.822/435.867
SO-50 22 Jan 04:45:24 04:49:45 58° 118° (ESE) 04:54:12 436.795
M-CUBED/EXP-1 PRIME 22 Jan 04:52:14 04:55:25 43° 104° (ESE) 04:58:32 437.505
KKS-1 22 Jan 04:59:33 05:03:51 54° 259° (W) 05:08:12 437.445
STARS 22 Jan 05:11:21 05:15:40 77° 74° (ENE) 05:20:02 437.465
LilacSat-2 22 Jan 05:21:59 05:25:02 23° 95° (E) 05:28:04 437.200
XW-2C 22 Jan 05:22:28 05:25:24 21° 95° (E) 05:28:17 145.795 - 145.815
FALCONSAT 3 22 Jan 05:24:39 05:28:07 40° 180° (S) 05:31:35 435.103
DOVE 4 22 Jan 05:40:01 05:43:51 30° 289° (WNW) 05:47:52 437.250
STRAND 1 22 Jan 05:41:15 05:45:16 24° 65° (ENE) 05:49:17 437.568
KAITUO 1B 22 Jan 05:52:45 05:56:08 34° 98° (E) 05:59:30 145.475/437.950
XW-2F 22 Jan 05:56:49 06:00:29 53° 100° (E) 06:04:07 145.980 - 146.000
NUDT-PHONESAT 22 Jan 06:00:59 06:04:28 41° 99° (E) 06:07:55 437.300
AO-7 22 Jan 06:06:12 06:11:00 17° 311° (NW) 06:15:48 .
XW-2D 22 Jan 06:07:44 06:11:30 87° 102° (ESE) 06:15:14 145.860 - 145.880
SEEDS 22 Jan 06:12:17 06:14:24 14° 91° (E) 06:16:30 437.485
CUTE-I 22 Jan 06:14:34 06:19:53 64° 102° (ESE) 06:25:09 437.470
XW-2B 22 Jan 06:25:28 06:29:10 57° 286° (WNW) 06:32:50 145.730 - 145.750
CUTE 1.7 + AOD 2 22 Jan 06:26:19 06:30:10 34° 97° (E) 06:33:59 437.475
SO-50 22 Jan 06:27:28 06:30:35 18° 317° (NW) 06:33:45 436.795
HO-68 22 Jan 06:32:05 06:38:54 45° 99° (E) 06:45:40 435.675
FO-29 22 Jan 06:32:10 06:38:15 37° 69° (ENE) 06:43:43 435.910
CUBEBUG 2 22 Jan 06:53:11 06:57:48 47° 99° (E) 07:02:20 437.445
UWE-3 22 Jan 06:55:51 06:59:51 28° 95° (E) 07:03:47 435.000/436.395/437.385
LilacSat-2 22 Jan 06:56:14 06:59:11 22° 291° (WNW) 07:02:08 437.200
XW-2C 22 Jan 06:56:27 06:59:29 23° 290° (WNW) 07:02:30 145.795 - 145.815
FALCONSAT 3 22 Jan 07:03:40 07:06:50 27° 195° (SSW) 07:09:58 435.103
ZACube-1 22 Jan 07:16:24 07:20:01 23° 94° (E) 07:23:35 437.345
RS-15 22 Jan 07:18:43 07:30:34 58° 112° (ESE) 07:42:19 29.354- 29.394
STRAND 1 22 Jan 07:19:25 07:24:11 40° 262° (W) 07:28:59 437.568
AO-73 22 Jan 07:22:13 07:25:51 23° 94° (E) 07:29:23 145.935
AAUSAT CUBESAT 2 22 Jan 07:23:19 07:27:07 36° 98° (E) 07:30:55 437.432
KAITUO 1B 22 Jan 07:27:42 07:29:47 15° 293° (WNW) 07:31:51 145.475/437.950
XW-2A 22 Jan 07:31:43 07:34:49 34° 98° (E) 07:37:53 145.665 - 145.685
XW-2F 22 Jan 07:33:37 07:34:05 10° 296° (WNW) 07:34:32 145.980 - 146.000
NUDT-PHONESAT 22 Jan 07:36:20 07:37:54 12° 294° (WNW) 07:39:27 437.300
SEEDS 22 Jan 07:46:19 07:50:18 45° 287° (WNW) 07:54:15 437.485
Oscar 11 22 Jan 07:53:31 07:57:20 30° 96° (E) 08:01:07 .
CUTE-I 22 Jan 07:56:03 07:59:22 17° 298° (WNW) 08:02:41 437.470
CUTE 1.7 + AOD 2 22 Jan 08:02:44 08:05:44 19° 293° (WNW) 08:08:43 437.475
YUBILEINY 22 Jan 08:07:15 08:12:08 16° 61° (ENE) 08:16:58 435.215
BEESAT 3 22 Jan 08:14:49 08:17:46 20° 112° (ESE) 08:20:45 437.485
FO-29 22 Jan 08:17:04 08:23:16 36° 262° (W) 08:28:51 435.910
HO-68 22 Jan 08:20:07 08:26:25 35° 297° (WNW) 08:32:43 435.675
TIGRISAT 22 Jan 08:27:53 08:31:57 37° 71° (ENE) 08:36:08 435.000
CUBEBUG 2 22 Jan 08:30:44 08:34:00 19° 295° (WNW) 08:37:15 437.445
UWE-3 22 Jan 08:32:12 08:36:12 29° 291° (WNW) 08:40:09 435.000/436.395/437.385
PCSat 22 Jan 08:40:55 08:45:43 34° 110° (ESE) 08:50:33 145.827
UNISAT 6 22 Jan 08:43:17 08:47:38 61° 74° (ENE) 08:52:08 437.425
O/OREOS (USA 219) 22 Jan 08:50:40 08:53:45 18° 56° (NE) 08:56:49 437.305
ZACube-1 22 Jan 08:52:16 08:56:19 32° 290° (WNW) 09:00:16 437.345
AO-73 22 Jan 08:58:03 09:02:03 32° 290° (WNW) 09:05:59 145.935
AAUSAT CUBESAT 2 22 Jan 08:59:34 09:02:16 17° 293° (WNW) 09:04:58 437.432
XW-2A 22 Jan 09:05:52 09:07:08 12° 294° (WNW) 09:08:25 145.665 - 145.685
BEESAT 2 22 Jan 09:06:45 09:09:37 19° 111° (ESE) 09:12:31 435.950
DELFI C3 22 Jan 09:19:57 09:23:48 51° 100° (E) 09:27:37 145.870
Oscar 11 22 Jan 09:29:55 09:33:18 23° 292° (WNW) 09:36:40 .
RS-15 22 Jan 09:31:37 09:43:24 48° 315° (NW) 09:55:00 29.354- 29.394
Max Valier Satellite 22 Jan 09:39:11 09:42:51 57° 100° (E) 09:46:27 145.860
AIST 2D 22 Jan 09:47:16 09:50:10 24° 71° (ENE) 09:53:03 435.315
BEESAT 3 22 Jan 09:51:25 09:55:04 34° 308° (NW) 09:58:43 437.485
EO-88 22 Jan 09:54:04 09:57:39 56° 100° (E) 10:01:11 145.990 - 145.960
PRISM 22 Jan 10:01:18 10:05:21 82° 255° (WSW) 10:09:26 437.425
YUBILEINY 22 Jan 10:01:40 10:10:27 80° 82° (E) 10:19:08 435.215
TIGRISAT 22 Jan 10:05:33 10:08:45 20° 267° (W) 10:12:03 435.000
POLYITAN 1 22 Jan 10:22:57 10:26:16 23° 68° (ENE) 10:29:36 437.675
UNISAT 6 22 Jan 10:23:04 10:24:45 12° 271° (W) 10:26:28 437.425
ESTCUBE 1 22 Jan 10:23:32 10:25:41 13° 91° (E) 10:27:49 437.505/2401.250
PCSat 22 Jan 10:24:09 10:29:03 34° 307° (NW) 10:33:59 145.827
O/OREOS (USA 219) 22 Jan 10:29:06 10:33:23 45° 253° (WSW) 10:37:39 437.305
NANOSAT C BR1 22 Jan 10:36:38 10:40:13 28° 69° (ENE) 10:43:50 145.865
BEESAT 2 22 Jan 10:43:20 10:47:04 36° 308° (NW) 10:50:50 435.950
QB50P2 22 Jan 10:51:51 10:55:58 53° 73° (ENE) 11:00:08 145.880/145.840
DELFI C3 22 Jan 10:56:34 10:58:04 12° 295° (WNW) 10:59:33 145.870
LO-87 22 Jan 11:07:57 11:11:32 55° 100° (E) 11:15:05 145.935 - 145.965
DUCHIFAT 1 22 Jan 11:18:38 11:22:49 73° 74° (ENE) 11:27:02 145.980
AIST 2D 22 Jan 11:20:50 11:23:16 18° 266° (W) 11:25:44 435.315
EO-79 22 Jan 11:22:02 11:26:15 77° 258° (WSW) 11:30:31 145.935-145.965
Oscar 19 22 Jan 11:22:58 11:25:50 15° 61° (ENE) 11:28:42 437.125/150
Gurwin Techsat 1B 22 Jan 11:23:44 11:25:27 12° 58° (ENE) 11:27:10 435.225
AO-85 22 Jan 11:31:02 11:34:59 88° 120° (ESE) 11:39:13 145.980
SPROUT 22 Jan 11:34:53 11:37:53 18° 93° (E) 11:40:52 437.525
RS-15 22 Jan 11:51:08 11:59:58 22° 346° (NNW) 12:08:36 29.354- 29.394
VELOX 1 22 Jan 11:51:34 11:54:03 15° 92° (E) 11:56:31 145.980
POLYITAN 1 22 Jan 11:58:09 12:01:51 29° 264° (W) 12:05:37 437.675
ESTCUBE 1 22 Jan 11:58:24 12:02:48 55° 287° (WNW) 12:07:10 437.505/2401.250
YUBILEINY 22 Jan 12:00:21 12:06:07 20° 281° (WNW) 12:11:53 435.215
AO-91 22 Jan 12:05:51 12:08:42 26° 70° (ENE) 12:11:39 145.960
NANOSAT C BR1 22 Jan 12:12:29 12:15:52 23° 265° (W) 12:19:18 145.865
BUGSAT 1 22 Jan 12:13:16 12:17:18 65° 75° (ENE) 12:21:25 437.445
QB50P2 22 Jan 12:30:19 12:32:04 12° 269° (W) 12:33:49 145.880/145.840
Gurwin Techsat 1B 22 Jan 12:59:14 13:04:33 87° 75° (ENE) 13:09:54 435.225
Oscar 19 22 Jan 12:59:21 13:04:31 71° 258° (WSW) 13:09:44 437.125/150
SPROUT 22 Jan 13:09:54 13:13:52 37° 289° (WNW) 13:17:49 437.525
AO-85 22 Jan 13:14:27 13:16:06 12° 322° (NW) 13:17:48 145.980
SO-50 22 Jan 13:16:58 13:21:30 45° 53° (NE) 13:26:04 436.795
AO-7 22 Jan 13:18:04 13:25:15 34° 58° (ENE) 13:32:27 .
UKube-1 22 Jan 13:22:22 13:25:01 16° 93° (E) 13:27:40 .
VELOX 1 22 Jan 13:26:29 13:30:43 48° 288° (WNW) 13:34:56 145.980
50 SAT 22 Jan 13:33:12 13:35:56 27° 98° (E) 13:38:39 437.505
DX 1 22 Jan 13:36:57 13:41:02 39° 99° (E) 13:45:07 434.975-435.025
AO-91 22 Jan 13:43:22 13:45:17 14° 267° (W) 13:47:14 145.960
MOZHAYETS 4 22 Jan 14:00:53 14:03:01 13° 90° (E) 14:05:08
RS-15 22 Jan 14:08:59 14:18:21 25° 23° (NNE) 14:27:20 29.354- 29.394
ITAMSAT 1 22 Jan 14:10:22 14:14:45 29° 66° (ENE) 14:19:08 435.822/435.867
BEESAT 22 Jan 14:25:28 14:27:44 13° 91° (E) 14:30:00 436.000
Gurwin Techsat 1B 22 Jan 14:44:04 14:45:08 11° 271° (W) 14:46:13 435.225
UKube-1 22 Jan 14:57:08 15:01:13 42° 289° (WNW) 15:05:16 .
SO-50 22 Jan 14:58:06 15:01:40 21° 249° (WSW) 15:05:15 436.795
50 SAT 22 Jan 15:06:01 15:07:20 12° 293° (WNW) 15:08:40 437.505
DOVE 4 22 Jan 15:08:07 15:11:18 21° 68° (ENE) 15:14:26 437.250
AO-7 22 Jan 15:09:24 15:17:34 58° 257° (WSW) 15:25:49 .
NO-84 22 Jan 15:11:51 15:13:51 16° 128° (SE) 15:15:48 435.350 FM
DX 1 22 Jan 15:13:55 15:16:54 18° 295° (WNW) 15:19:53 434.975-435.025
ITUPSAT 1 22 Jan 15:22:46 15:27:29 52° 100° (E) 15:32:10 437.325
MOZHAYETS 4 22 Jan 15:35:58 15:40:32 59° 286° (WNW) 15:45:03
M-CUBED/EXP-1 PRIME 22 Jan 15:36:02 15:40:17 58° 69° (ENE) 15:44:15 437.505
CUBESAT XI-V 22 Jan 15:44:05 15:48:26 40° 98° (E) 15:52:45 437.345
ITAMSAT 1 22 Jan 15:49:26 15:54:04 33° 263° (W) 15:58:45 435.822/435.867
CUTE-I 22 Jan 15:59:25 16:01:44 13° 59° (ENE) 16:04:02 437.470
BEESAT 22 Jan 16:01:09 16:05:54 62° 287° (WNW) 16:10:37 436.000
LilacSat-2 22 Jan 16:04:42 16:06:07 12° 65° (ENE) 16:07:32 437.200
XW-2C 22 Jan 16:05:01 16:05:52 11° 64° (ENE) 16:06:43 145.795 - 145.815
RS-15 22 Jan 16:22:03 16:33:45 65° 52° (NE) 16:44:47 29.354- 29.394
BEESAT 3 22 Jan 16:32:16 16:33:56 12° 42° (NE) 16:35:35 437.485
KAITUO 1B 22 Jan 16:32:39 16:34:56 16° 67° (ENE) 16:37:14 145.475/437.950
XW-2F 22 Jan 16:36:58 16:40:02 23° 70° (ENE) 16:43:05 145.980 - 146.000
NUDT-PHONESAT 22 Jan 16:39:42 16:42:14 18° 68° (ENE) 16:44:46 437.300
DOVE 4 22 Jan 16:45:04 16:48:50 30° 263° (W) 16:52:32 437.250
NO-84 22 Jan 16:47:51 16:50:48 38° 321° (NW) 16:53:37 435.350 FM
XW-2D 22 Jan 16:47:53 16:51:24 35° 72° (ENE) 16:54:54 145.860 - 145.880
KKS-1 22 Jan 16:51:09 16:55:02 28° 97° (E) 16:58:52 437.445
HO-68 22 Jan 17:00:25 17:06:33 32° 62° (ENE) 17:12:41 435.675
ITUPSAT 1 22 Jan 17:01:44 17:04:52 18° 297° (WNW) 17:07:59 437.325
STARS 22 Jan 17:02:35 17:05:01 14° 92° (E) 17:07:26 437.465
XW-2B 22 Jan 17:05:17 17:09:02 56° 75° (ENE) 17:12:48 145.730 - 145.750
M-CUBED/EXP-1 PRIME 22 Jan 17:13:09 17:14:49 12° 262° (W) 17:16:28 437.505
CUTE 1.7 + AOD 2 22 Jan 17:18:25 17:21:47 23° 69° (ENE) 17:25:10 437.475
CUBESAT XI-V 22 Jan 17:22:12 17:25:29 20° 294° (WNW) 17:28:46 437.345
BEESAT 2 22 Jan 17:25:01 17:26:43 12° 41° (NE) 17:28:25 435.950
PCSat 22 Jan 17:29:09 17:33:42 26° 50° (NE) 17:38:11 145.827
CUTE-I 22 Jan 17:35:42 17:41:02 85° 257° (WSW) 17:46:22 437.470
XW-2C 22 Jan 17:35:46 17:39:31 55° 260° (W) 17:43:18 145.795 - 145.815
LilacSat-2 22 Jan 17:36:10 17:39:55 50° 260° (W) 17:43:41 437.200
CUBEBUG 2 22 Jan 17:50:27 17:54:24 34° 70° (ENE) 17:58:30 437.445
UWE-3 22 Jan 17:52:21 17:55:39 21° 66° (ENE) 17:59:01 435.000/436.395/437.385
XW-2A 22 Jan 18:03:37 18:04:48 11° 66° (ENE) 18:05:58 145.665 - 145.685
KAITUO 1B 22 Jan 18:05:11 18:08:37 33° 263° (W) 18:12:03 145.475/437.950
BEESAT 3 22 Jan 18:08:02 18:11:56 74° 240° (WSW) 18:15:46 437.485
XW-2F 22 Jan 18:11:00 18:14:01 22° 265° (W) 18:17:04 145.980 - 146.000
ZACube-1 22 Jan 18:11:50 18:14:47 18° 65° (ENE) 18:17:47 437.345
NUDT-PHONESAT 22 Jan 18:12:33 18:15:50 29° 263° (W) 18:19:07 437.300
AAUSAT CUBESAT 2 22 Jan 18:12:52 18:16:06 23° 69° (ENE) 18:19:20 437.432
AO-73 22 Jan 18:17:18 18:20:16 18° 65° (ENE) 18:23:16 145.935
XW-2D 22 Jan 18:23:28 18:25:40 15° 267° (W) 18:27:52 145.860 - 145.880
AO-85 22 Jan 18:23:36 18:25:26 12° 38° (NE) 18:27:18 145.980
KKS-1 22 Jan 18:27:46 18:31:27 26° 292° (WNW) 18:35:08 437.445
nSIGHT-1 22 Jan 18:31:53 18:33:49 15° 131° (SE) 18:35:45 .
RS-15 22 Jan 18:35:24 18:45:22 36° 255° (WSW) 18:54:57 29.354- 29.394
SEEDS 22 Jan 18:36:26 18:40:40 77° 259° (W) 18:44:53 437.485
STARS 22 Jan 18:37:19 18:41:36 49° 287° (WNW) 18:45:51 437.465
HO-68 22 Jan 18:47:06 18:53:59 50° 260° (W) 19:00:54 435.675
Oscar 11 22 Jan 18:47:49 18:51:11 22° 68° (ENE) 18:54:34 .
ISS 22 Jan 18:53:10 18:55:23 17° 131° (SE) 18:57:37 437.550
CUTE 1.7 + AOD 2 22 Jan 18:53:44 18:57:27 29° 264° (W) 19:01:11 437.475
BEESAT 2 22 Jan 19:00:57 19:04:58 79° 240° (WSW) 19:08:54 435.950
PCSat 22 Jan 19:12:06 19:17:18 47° 248° (WSW) 19:22:27 145.827
FO-29 22 Jan 19:26:46 19:31:11 27° 96° (E) 19:35:39 435.910
UWE-3 22 Jan 19:27:42 19:31:48 37° 263° (W) 19:36:03 435.000/436.395/437.385
CUBEBUG 2 22 Jan 19:27:44 19:31:05 21° 267° (W) 19:34:33 437.445
STRAND 1 22 Jan 19:29:59 19:35:09 73° 102° (ESE) 19:40:17 437.568
XW-2A 22 Jan 19:33:53 19:37:06 38° 262° (W) 19:40:19 145.665 - 145.685
ZACube-1 22 Jan 19:46:24 19:50:39 45° 262° (W) 19:55:02 437.345
AAUSAT CUBESAT 2 22 Jan 19:47:51 19:51:23 27° 264° (W) 19:54:57 437.432
AO-73 22 Jan 19:51:50 19:56:06 45° 262° (W) 20:00:27 145.935
AO-85 22 Jan 20:01:48 20:06:45 64° 56° (NE) 20:11:59 145.980
DELFI C3 22 Jan 20:04:32 20:07:47 26° 70° (ENE) 20:11:03 145.870
nSIGHT-1 22 Jan 20:06:35 20:09:40 51° 326° (NNW) 20:12:46 .
Max Valier Satellite 22 Jan 20:17:22 20:20:21 23° 70° (ENE) 20:23:20 145.860
Oscar 11 22 Jan 20:23:14 20:27:07 31° 263° (W) 20:31:02 .
ISS 22 Jan 20:28:25 20:31:36 49° 328° (NNW) 20:34:47 437.550
EO-88 22 Jan 20:31:09 20:33:58 21° 70° (ENE) 20:36:47 145.990 - 145.960
UNISAT 6 22 Jan 20:36:52 20:39:28 15° 91° (E) 20:42:02 437.425
YUBILEINY 22 Jan 21:08:58 21:14:20 18° 78° (ENE) 21:19:40 435.215
STRAND 1 22 Jan 21:11:01 21:13:41 14° 299° (WNW) 21:16:22 437.568
FO-29 22 Jan 21:11:46 21:16:20 32° 292° (WNW) 21:20:59 435.910
ESTCUBE 1 22 Jan 21:23:04 21:24:57 12° 62° (ENE) 21:26:50 437.505/2401.250
DELFI C3 22 Jan 21:39:27 21:42:27 21° 265° (W) 21:45:30 145.870
AO-85 22 Jan 21:43:30 21:46:47 17° 251° (WSW) 21:50:08 145.980
LO-87 22 Jan 21:43:35 21:46:11 19° 69° (ENE) 21:48:49 145.935 - 145.965
PRISM 22 Jan 21:44:29 21:46:34 14° 92° (E) 21:48:37 437.425
nSIGHT-1 22 Jan 21:44:41 21:46:25 14° 345° (NNW) 21:48:08 .
NO-84 22 Jan 21:45:06 21:45:42 10° 25° (NNE) 21:46:19 435.350 FM
Max Valier Satellite 22 Jan 21:51:07 21:54:03 22° 265° (W) 21:57:01 145.860
TIGRISAT 22 Jan 21:55:50 22:00:34 89° 288° (WNW) 22:05:15 435.000
EO-88 22 Jan 22:04:33 22:07:28 22° 265° (W) 22:10:24 145.990 - 145.960
ISS 22 Jan 22:06:52 22:08:41 14° 346° (NNW) 22:10:31 437.550
UNISAT 6 22 Jan 22:11:52 22:16:29 55° 286° (WNW) 22:21:02 437.425
SPROUT 22 Jan 22:28:24 22:30:29 13° 64° (ENE) 22:32:34 437.525
AIST 2D 22 Jan 22:45:01 22:48:08 30° 97° (E) 22:51:13 435.315
VELOX 1 22 Jan 22:48:53 22:50:53 13° 63° (ENE) 22:52:54 145.980
ESTCUBE 1 22 Jan 22:56:40 23:01:10 67° 259° (WSW) 23:05:41 437.505/2401.250
YUBILEINY 22 Jan 23:01:01 23:09:53 88° 277° (W) 23:18:44 435.215
O/OREOS (USA 219) 22 Jan 23:02:24 23:05:47 21° 102° (ESE) 23:09:11 437.305
DUCHIFAT 1 22 Jan 23:05:06 23:06:44 12° 91° (E) 23:08:22 145.980
EO-79 22 Jan 23:08:06 23:11:03 18° 93° (E) 23:13:59 145.935-145.965
LO-87 22 Jan 23:16:32 23:19:25 23° 264° (W) 23:22:21 145.935 - 145.965
PRISM 22 Jan 23:18:08 23:22:01 44° 287° (WNW) 23:25:55 437.425
NO-84 22 Jan 23:20:25 23:23:16 82° 44° (NE) 23:26:13 435.350 FM
nSIGHT-1 22 Jan 23:22:51 23:23:40 11° 6° (N) 23:24:29 .
POLYITAN 1 22 Jan 23:42:49 23:46:56 44° 99° (E) 23:51:01 437.675
ISS 22 Jan 23:45:05 23:46:16 11° 7° (N) 23:47:28 437.550
NANOSAT C BR1 22 Jan 23:56:09 00:00:21 55° 100° (E) 00:04:31 145.865
SPROUT 23 Jan 00:01:44 00:05:52 53° 260° (W) 00:10:04 437.525
QB50P2 23 Jan 00:12:38 00:16:55 73° 285° (WNW) 00:21:11 145.880/145.840
UKube-1 23 Jan 00:16:53 00:18:59 13° 63° (ENE) 00:21:04 .
AIST 2D 23 Jan 00:19:08 00:21:00 14° 292° (WNW) 00:22:51 435.315
VELOX 1 23 Jan 00:22:29 00:26:48 60° 259° (WSW) 00:31:09 145.980
DX 1 23 Jan 00:31:45 00:35:34 32° 70° (ENE) 00:39:25 434.975-435.025
DUCHIFAT 1 23 Jan 00:38:32 00:42:42 55° 286° (WNW) 00:46:51 145.980
O/OREOS (USA 219) 23 Jan 00:40:50 00:44:57 35° 298° (WNW) 00:49:05 437.305
EO-79 23 Jan 00:42:57 00:46:55 37° 289° (WNW) 00:50:50 145.935-145.965
nSIGHT-1 23 Jan 00:58:03 01:00:43 24° 26° (NNE) 01:03:22 .
YUBILEINY 23 Jan 01:02:24 01:07:59 18° 298° (WNW) 01:13:36 435.215
MOZHAYETS 4 23 Jan 01:02:36 01:04:39 13° 62° (ENE) 01:06:42
Oscar 19 23 Jan 01:11:42 01:16:37 42° 99° (E) 01:21:28 437.125/150
Gurwin Techsat 1B 23 Jan 01:16:22 01:21:15 36° 97° (E) 01:26:06 435.225
POLYITAN 1 23 Jan 01:19:39 01:22:20 16° 295° (WNW) 01:24:59 437.675
ISS 23 Jan 01:20:47 01:23:37 26° 26° (NNE) 01:26:26 437.550
50 SAT 23 Jan 01:27:41 01:30:41 50° 260° (W) 01:33:42 437.505
AO-91 23 Jan 01:29:56 01:34:33 82° 103° (ESE) 01:39:38 145.960
BUGSAT 1 23 Jan 01:30:30 01:34:43 66° 285° (WNW) 01:38:55 437.445
BEESAT 23 Jan 01:31:13 01:34:00 16° 63° (ENE) 01:36:49 436.000
NANOSAT C BR1 23 Jan 01:33:32 01:35:33 13° 296° (WNW) 01:37:35 145.865
UKube-1 23 Jan 01:50:17 01:54:30 55° 259° (W) 01:58:44 .
DX 1 23 Jan 02:08:27 02:11:46 21° 265° (W) 02:15:06 434.975-435.025
ITUPSAT 1 23 Jan 02:28:34 02:33:14 56° 73° (ENE) 02:37:56 437.325
nSIGHT-1 23 Jan 02:33:57 02:36:59 43° 222° (SW) 02:40:01 .
MOZHAYETS 4 23 Jan 02:36:36 02:41:12 68° 259° (WSW) 02:45:51
CUBESAT XI-V 23 Jan 02:46:24 02:50:43 37° 71° (ENE) 02:55:02 437.345
